Weather History for Eagle, AK

Change the Weather History Date:

Friday, March 28, 2014

  Actual Average (PABN) Record (PABN)
Temperature  
Mean Temperature 14 °F -  
Max Temperature 37 °F 23 °F 39 °F (2011)
Min Temperature -9 °F 9 °F 1 °F (2013)
Degree Days  
Heating Degree Days 51    
Moisture  
Dew Point -4 °F    
Average Humidity 51    
Maximum Humidity 83    
Minimum Humidity 22    
Precipitation  
Precipitation 0.00 in - - ()
Sea Level Pressure  
Sea Level Pressure 29.97 in    
Wind  
Wind Speed 2 mph (ENE)    
Max Wind Speed 9 mph    
Max Gust Speed -    
Visibility 10 miles    
Events      
Averages and records for this station are not official NWS values.
T = Trace of Precipitation, MM = Missing Value Source: NWS Daily Summary

Daily Weather History Graph

Daily Weather History Graph

Search for Another Location

Airport:

Trip Planner

Search our weather history database for the weather conditions in past years. The results will help you decide how hot, cold, wet, or windy it might be!

Date:

Astronomy

Mar. 28, 2014 Rise Set
Actual Time 6:55 AM AKDT 8:05 PM AKDT
Civil Twilight 6:05 AM AKDT 8:56 PM AKDT
Nautical Twilight 5:01 AM AKDT 10:00 PM AKDT
Astronomical Twilight 3:41 AM AKDT 11:23 PM AKDT
Moon 6:16 AM AKDT (3/28) 5:37 PM AKDT (3/28)
Length of Visible Light 14h 51m
Length of Day
13h 10m
Waning Crescent, 5% of the Moon is Illuminated
Mar 28
Waning Crescent
Mar 30
New
Apr 7
First Quarter
Apr 14
Full
Apr 21
Last Quarter

Hourly Weather History & Observations

Time (AKDT) Temp. Windchill Dew Point Humidity Pressure Visibility Wind Dir Wind Speed Gust Speed Precip Events Conditions
12:53 AM 3.0 °F -4.4 °F -6.0 °F 66% 30.01 in 10.0 mi WSW 3.5 mph - N/A   Clear
1:53 AM 1.0 °F - -7.1 °F 69% 30.02 in 10.0 mi Calm Calm - N/A   Clear
2:53 AM -2.0 °F - -9.0 °F 72% 30.03 in 10.0 mi Calm Calm - N/A   Clear
3:53 AM -6.0 °F - -11.0 °F 79% 30.04 in 10.0 mi Calm Calm - N/A   Clear
4:53 AM -8.0 °F - -11.9 °F 83% 30.04 in 10.0 mi Calm Calm - N/A   Clear
5:53 AM -9.0 °F - -14.1 °F 79% 30.04 in 10.0 mi Calm Calm - N/A   Clear
6:53 AM -9.9 °F - -15.0 °F 78% 30.05 in 10.0 mi Calm Calm - N/A   Clear
7:53 AM -9.0 °F - -15.0 °F 75% 30.05 in 10.0 mi Calm Calm - N/A   Clear
8:53 AM 1.0 °F - -6.0 °F 72% 30.04 in 10.0 mi Calm Calm - N/A   Clear
9:53 AM 9.0 °F - -2.9 °F 59% 30.03 in 10.0 mi Calm Calm - N/A   Clear
10:53 AM 16.0 °F - -0.9 °F 47% 30.01 in 10.0 mi Calm Calm - N/A   Clear
11:53 AM 24.1 °F 18.2 °F 1.0 °F 37% 29.99 in 10.0 mi East 4.6 mph - N/A   Clear
12:53 PM 27.0 °F 19.5 °F 3.0 °F 36% 29.98 in 10.0 mi NE 6.9 mph - N/A   Clear
1:53 PM 30.9 °F 25.2 °F 3.9 °F 32% 29.96 in 10.0 mi ENE 5.8 mph - N/A   Clear
2:53 PM 34.0 °F 26.6 °F 3.0 °F 27% 29.94 in 10.0 mi NE 9.2 mph - N/A   Clear
3:53 PM 36.0 °F 29.0 °F -0.0 °F 22% 29.93 in 10.0 mi ENE 9.2 mph - N/A   Clear
4:53 PM 37.0 °F 32.4 °F 1.0 °F 22% 29.91 in 10.0 mi ENE 5.8 mph - N/A   Clear
5:53 PM 37.0 °F 32.4 °F 1.9 °F 23% 29.90 in 10.0 mi East 5.8 mph - N/A   Clear
6:53 PM 35.1 °F 29.3 °F 1.9 °F 25% 29.89 in 10.0 mi East 6.9 mph - N/A   Clear
7:53 PM 30.0 °F - 1.0 °F 29% 29.89 in 10.0 mi Calm Calm - N/A   Clear
8:53 PM 27.0 °F 21.6 °F 1.0 °F 33% 29.89 in 10.0 mi Variable 4.6 mph - N/A   Clear
9:53 PM 21.0 °F - 1.9 °F 44% 29.90 in 10.0 mi Calm Calm - N/A   Clear
10:53 PM 12.9 °F 6.9 °F -0.9 °F 54% 29.91 in 10.0 mi Variable 3.5 mph - N/A   Clear
11:53 PM 6.1 °F -0.9 °F -4.0 °F 63% 29.91 in 10.0 mi SSW 3.5 mph - N/A   Clear